Portada
METAR-TAF:

METAR-TAF

Aeroports :

East Hampton Airport

East Hampton, Nova York, Estats Units d'Amèrica

latitud: 40-57-34N, longitud: 072-15-07W, altitud: 17 m

Observació

L'informe es va fer fa 25 minuts, a les 01:55 UTC
Vent 6 kt del Oest/Nord-Oest
Temperatura -2°C
Humitat 36%
Pressió 1018 hPa
Visibilitat: 16.1 km
Cel clar

METAR: KHTO 030155Z AUTO 29006KT 10SM CLR M02/M15 A3007 RMK AO2 T10201151

Hora: 21:20 (02:20 UTC)


TAF: manca

Observacions i pronòstics meteorològics de més de 4000 aeroports (METAR i TAF).

Les estacions disponibles són els punts grocs i vermells al mapa.

Posi el ratolí al punt desitjat per veure el nom de l'estació.

Feu clic per veure les observacions i els pronòstics meteorològics.

Per canviar el mapa: feu clic els botons verds amb una creu de color negre per apropar; al botó verd amb un guió per allunyar la imatge; o en les fletxes verdes per a mapes adjacents.


METAR-TAF: